{"data":{"norad_id":58080,"intl_designator":"2023-160F","name":"STARLINK-30603","alt_names":[],"object_type":"PAYLOAD","status":"ACTIVE","operator":null,"country":"US","launch_date":"2023-10-18","launch_site_code":"AFETR","launch_vehicle":null,"mission":null,"orbit_class":"UNKNOWN","rcs_meters":null,"size_class":null,"mass_kg":null,"dimensions":null,"purposes":["comms"],"wikipedia_slug":null,"has_3d_model":false,"image_url":null,"decayed_at":null,"tle_current":{"epoch":"2026-09-20T03:15:55.388736Z","epoch_age_seconds":171925,"freshness":"FRESH","line1":"1 58080U 23160F   26263.13605774 -.00000426  00000+0 -59433-5 0  9997","line2":"2 58080  43.0022  59.7772 0001138 276.7779  83.2943 15.27576400162688","mean_motion":15.275764,"eccentricity":0.0001138,"inclination_deg":43.0022,"raan_deg":59.7772,"arg_perigee_deg":276.7779,"mean_anomaly_deg":83.2943,"bstar":-5.9433e-6,"rev_number":16268,"period_min":94.266970869673,"perigee_km":482.27907155145,"apogee_km":483.84067996038,"semimajor_km":6861.1968757559,"source":"CELESTRAK","updated_at":"2026-09-21T09:00:33.782294Z"}}}